This is the latest recevied weather packets stored in our database for station/object DJ9MA-10. If no packets are shown the sender has not sent any weather packets the latest 10 day(s).
| Time | Temp. | Humidity | Pressure | Rain* | Wind** | Luminosity | Snow |
|---|---|---|---|---|---|---|---|
| 1777513430 | 11.11° C | 38% | 973.5 hPa | - | - | - | - |
| 1777512530 | 11.11° C | 39% | 973.6 hPa | - | - | - | - |
| 1777511630 | 11.11° C | 40% | 973.5 hPa | - | - | - | - |
| 1777510730 | 11.67° C | 42% | 973.4 hPa | - | - | - | - |
| 1777509830 | 11.67° C | 41% | 973.2 hPa | - | - | - | - |
| 1777508930 | 12.22° C | 41% | 973.1 hPa | - | - | - | - |
| 1777508030 | 12.22° C | 41% | 973.1 hPa | - | - | - | - |
| 1777507130 | 12.78° C | 41% | 973.1 hPa | - | - | - | - |
| 1777506229 | 12.78° C | 42% | 973.1 hPa | - | - | - | - |
| 1777505330 | 13.33° C | 42% | 973.1 hPa | - | - | - | - |
| 1777504429 | 13.33° C | 42% | 973 hPa | - | - | - | - |
| 1777503529 | 13.33° C | 43% | 972.8 hPa | - | - | - | - |
| 1777502629 | 13.89° C | 45% | 972.7 hPa | - | - | - | - |
| 1777501729 | 13.89° C | 45% | 972.5 hPa | - | - | - | - |
| 1777500829 | 13.89° C | 44% | 972.2 hPa | - | - | - | - |
| 1777499929 | 13.89° C | 43% | 972.1 hPa | - | - | - | - |
| 1777499029 | 14.44° C | 42% | 972 hPa | - | - | - | - |
| 1777498129 | 14.44° C | 41% | 971.8 hPa | - | - | - | - |
| 1777497229 | 14.44° C | 40% | 971.6 hPa | - | - | - | - |
| 1777496329 | 15° C | 39% | 971.5 hPa | - | - | - | - |
| 1777495429 | 15° C | 39% | 971.4 hPa | - | - | - | - |
| 1777494529 | 15.56° C | 39% | 971.4 hPa | - | - | - | - |
| 1777493629 | 16.11° C | 39% | 971.2 hPa | - | - | - | - |
| 1777492729 | 16.11° C | 39% | 971 hPa | - | - | - | - |
| 1777491829 | 16.67° C | 39% | 970.9 hPa | - | - | - | - |
* Rain since midnight (hover to see other rain measurements)
** Current wind speed in m/s (hover to see current wind gust speed)